This is the latest recevied weather packets stored in our database for station/object WB0OCV. If no packets are shown the sender has not sent any weather packets the latest 1 day(s).
| Time | Temp. | Humidity | Pressure | Rain* | Wind** | Luminosity | Snow |
|---|---|---|---|---|---|---|---|
| 1778041174 | 13.89° C | 89% | 1016.2 hPa | 0 mm | 0 m/s | 0 W/m² | - |
| 1778040872 | 13.89° C | 89% | 1016.4 hPa | 0 mm | 1.34 m/s, 204° | 0 W/m² | - |
| 1778040569 | 13.89° C | 88% | 1016.3 hPa | 0 mm | 0.45 m/s, 127° | 0 W/m² | - |
| 1778040266 | 13.89° C | 88% | 1016.3 hPa | 0 mm | 0.45 m/s, 240° | 0 W/m² | - |
| 1778039962 | 13.89° C | 88% | 1016.4 hPa | 0 mm | 1.79 m/s, 236° | 0 W/m² | - |
| 1778039660 | 13.89° C | 88% | 1016.3 hPa | 0 mm | 0.45 m/s, 146° | 0 W/m² | - |
| 1778039356 | 13.89° C | 88% | 1016.4 hPa | 0 mm | 0.45 m/s, 81° | 0 W/m² | - |
| 1778039054 | 14.44° C | 87% | 1016.1 hPa | 0 mm | 0.89 m/s, 171° | 0 W/m² | - |
| 1778038751 | 14.44° C | 87% | 1016.4 hPa | 0 mm | 0.89 m/s, 248° | 0 W/m² | - |
| 1778038448 | 14.44° C | 87% | 1016.3 hPa | 0 mm | 1.34 m/s, 79° | 0 W/m² | - |
| 1778038145 | 14.44° C | 86% | 1016.1 hPa | 0 mm | 0.89 m/s, 242° | 0 W/m² | - |
| 1778037841 | 14.44° C | 86% | 1016.3 hPa | 0 mm | 3.58 m/s, 273° | 0 W/m² | - |
| 1778037538 | 14.44° C | 86% | 1016.1 hPa | 0 mm | 0.89 m/s, 220° | 0 W/m² | - |
| 1778037235 | 14.44° C | 86% | 1016.1 hPa | 0 mm | 0.89 m/s, 175° | 0 W/m² | - |
| 1778036933 | 14.44° C | 86% | 1016.2 hPa | 0 mm | 1.34 m/s, 226° | 0 W/m² | - |
| 1778036631 | 14.44° C | 86% | 1016 hPa | 0 mm | 0.89 m/s, 114° | 0 W/m² | - |
| 1778036328 | 14.44° C | 85% | 1016 hPa | 0 mm | 0.45 m/s, 141° | 0 W/m² | - |
| 1778036024 | 14.44° C | 85% | 1015.9 hPa | 0 mm | 2.24 m/s, 214° | 0 W/m² | - |
| 1778035721 | 14.44° C | 85% | 1015.9 hPa | 0 mm | 0.89 m/s, 215° | 0 W/m² | - |
| 1778035418 | 13.89° C | 86% | 1015.9 hPa | 0 mm | 1.34 m/s, 157° | 0 W/m² | - |
| 1778035114 | 13.89° C | 85% | 1015.7 hPa | 0 mm | 0.89 m/s, 196° | 0 W/m² | - |
| 1778034811 | 13.89° C | 85% | 1015.9 hPa | 0 mm | 0.45 m/s, 116° | 0 W/m² | - |
| 1778034508 | 13.89° C | 85% | 1016 hPa | 0 mm | 0.45 m/s, 183° | 0 W/m² | - |
| 1778034205 | 13.89° C | 85% | 1016.1 hPa | 0 mm | 0.89 m/s, 192° | 0 W/m² | - |
| 1778033904 | 13.89° C | 85% | 1016 hPa | 0 mm | 0.89 m/s, 169° | 0 W/m² | - |
* Rain latest hour (hover to see other rain measurements)
** Current wind speed in m/s (hover to see current wind gust speed)